Regional Weather Roundup
Issued by NWS

Home | Current Version | Previous Version | Graphics & Text | Print | Product List | Glossary Off
Versions: 1 2 3 4 5 6 7 8 9 10 11 12 13 14 15 16 17 18 19 20 21 22 23 24 25 26 27 28 29 30 31 32 33 34 35 36 37 38 39 40 41 42 43 44 45 46 47 48 49 50

866
ASUS43 KTOP 271008
RWRKS

WEATHER ROUNDUP FOR KANSAS
NATIONAL WEATHER SERVICE GOODLAND KS
500 AM CDT SAT AUG 27 2016

NOTE:  "FAIR" INDICATES FEW OR NO CLOUDS BELOW 12,000 FEET WITH NO
SIGNIFICANT WEATHER AND/OR OBSTRUCTIONS TO VISIBILITY.

KSZ001>006-013>018-027>032-041>047-271100-
NORTHWEST KANSAS

CITY           SKY/WX    TMP DP  RH WIND       PRES   REMARKS
GOODLAND       FOG       53  52  96 S7        30.05S VSB 1/4
HAYS           CLOUDY    61  54  77 NE3       30.03R
HILL CITY      CLOUDY    55  54  96 CALM      30.04R
RUSSELL        HVY RAIN  62  61  96 S12       30.02F
$$

KSZ061>065-074>080-084>089-271100-
SOUTHWEST KANSAS

CITY           SKY/WX    TMP DP  RH WIND       PRES   REMARKS
DODGE CITY     CLOUDY    62  59  90 E10       30.05F
ELKHART          N/A     62  54  75 SW8         N/A
GARDEN CITY    CLOUDY    61  58  90 E7        30.04S
GREAT BEND     CLOUDY    63  55  77 CALM      30.05S
LIBERAL        CLEAR     63  55  77 W6        30.04F
PRATT          CLOUDY    62  59  91 N8        30.05S
$$

KSZ066>073-081>083-090>101-271100-
SOUTHEAST KANSAS

CITY           SKY/WX    TMP DP  RH WIND       PRES   REMARKS
CHANUTE        CLOUDY    69  68  96 SE3       30.03R
COFFEYVILLE    MOCLDY    71  70  96 CALM      30.01S
HUTCHINSON     CLOUDY    67  62  84 NE8       30.03S
MEDICINE LODGE   N/A     66  64  93 NE3       30.00R
NEWTON         CLOUDY    67  64  90 N10       30.04R
PARSONS        MOCLDY    71  69  93 CALM      30.03R
WICHITA INTL   PTCLDY    70  67  90 CALM      30.01R
WICHITA JABRA  PTCLDY    67  67 100 N3        30.01R
WICHITA MCCONL CLEAR     69  67  92 SE1       30.00S
WINFIELD       CLOUDY    70  67  90 SE3       30.01R
$$

KSZ007>012-019>026-033>040-048>060-102>105-271100-
NORTHEAST KANSAS

CITY           SKY/WX    TMP DP  RH WIND       PRES   REMARKS
CONCORDIA      PTCLDY    64  63  96 SW6       30.00R
EMPORIA        PTCLDY    68  68 100 SE3       30.01F FOG
LAWRENCE       PTCLDY    67  67 100 CALM      30.00F
MANHATTAN      LGT RAIN  67  66  97 SE6       30.00F
MARYSVILLE     LGT RAIN  66  64  94 SE12G20   29.96F
OLATHE IND     CLOUDY    70  69  97 S6        30.02S
OLATHE EXE     CLOUDY   N/A N/A N/A S6        30.02S
SALINA         LGT RAIN  66  65  96 SE14      29.98F
TOPEKA BILLARD CLOUDY    68  66  93 CALM      30.00F
TOPEKA FORBES  PTCLDY    71  68  90 SE6       30.01S
$$




USA.gov is the U.S. government's official web portal to all federal, state and local government web resources and services.